Time,TemperatureF,DewpointF,PressureIn,WindDirection,WindDirectionDegrees,WindSpeedMPH,WindSpeedGustMPH,Humidity,HourlyPrecipIn,Conditions,Clouds,dailyrainin,SoftwareType,DateUTC
2013-01-02 09:03:00,19.0,16.0,30.29,NNW,335,0.0,0.0,87,0.00,,,0.00,,2013-01-02 15:03:00,
2013-01-02 09:12:00,19.0,16.0,30.29,NNW,335,0.0,0.0,87,0.00,,,0.00,,2013-01-02 15:12:00,
2013-01-02 09:22:00,20.0,16.0,30.28,NNW,334,0.0,0.0,83,0.00,,,0.00,,2013-01-02 15:22:00,
2013-01-02 09:33:00,21.0,17.0,30.29,NNW,335,0.0,0.0,83,0.00,,,0.00,,2013-01-02 15:33:00,
2013-01-02 09:43:00,21.0,17.0,30.29,NNW,335,0.0,0.0,83,0.00,,,0.00,,2013-01-02 15:43:00,
2013-01-02 09:53:00,21.0,16.0,30.29,NNW,332,0.0,0.0,82,0.00,,,0.00,,2013-01-02 15:53:00,
2013-01-02 10:03:00,22.0,18.0,30.28,NNW,332,0.0,0.0,83,0.00,,,0.00,,2013-01-02 16:03:00,
2013-01-02 10:12:00,22.0,18.0,30.28,NNW,332,0.0,0.0,83,0.00,,,0.00,,2013-01-02 16:12:00,
2013-01-02 10:22:00,23.0,17.0,30.28,NNW,332,0.0,0.0,79,0.00,,,0.00,,2013-01-02 16:22:00,
2013-01-02 10:33:00,23.0,17.0,30.28,NNW,329,0.0,0.0,77,0.00,,,0.00,,2013-01-02 16:33:00,
2013-01-02 10:42:00,23.0,17.0,30.28,NNW,329,0.0,0.0,77,0.00,,,0.00,,2013-01-02 16:42:00,
2013-01-02 10:53:00,24.0,18.0,30.27,NNW,328,0.0,0.0,76,0.00,,,0.00,,2013-01-02 16:53:00,
2013-01-02 11:03:00,25.0,18.0,30.27,NW,321,0.0,0.0,74,0.00,,,0.00,,2013-01-02 17:03:00,
2013-01-02 11:12:00,25.0,18.0,30.27,NW,321,0.0,0.0,74,0.00,,,0.00,,2013-01-02 17:12:00,
2013-01-02 11:22:00,26.0,19.0,30.27,NW,321,0.0,0.0,75,0.00,,,0.00,,2013-01-02 17:22:00,
2013-01-02 11:33:00,27.0,20.0,30.26,NW,320,0.0,0.0,74,0.00,,,0.00,,2013-01-02 17:33:00,
2013-01-02 11:43:00,27.0,20.0,30.26,NW,320,0.0,0.0,74,0.00,,,0.00,,2013-01-02 17:43:00,
2013-01-02 11:53:00,27.0,20.0,30.26,NW,320,0.0,0.0,74,0.00,,,0.00,,2013-01-02 17:53:00,
2013-01-02 12:02:00,28.0,20.0,30.24,NNW,328,0.0,0.0,72,0.00,,,0.00,,2013-01-02 18:02:00,
2013-01-02 12:12:00,28.0,20.0,30.24,NNW,328,0.0,0.0,72,0.00,,,0.00,,2013-01-02 18:12:00,
2013-01-02 12:22:00,28.0,20.0,30.24,NW,324,0.0,0.0,72,0.00,,,0.00,,2013-01-02 18:22:00,
2013-01-02 12:33:00,29.0,21.0,30.24,NW,323,0.0,0.0,71,0.00,,,0.00,,2013-01-02 18:33:00,
2013-01-02 12:43:00,29.0,21.0,30.24,NW,323,0.0,0.0,71,0.00,,,0.00,,2013-01-02 18:43:00,
2013-01-02 12:50:00,30.0,21.0,30.22,NW,325,0.0,0.0,69,0.00,,,0.00,,2013-01-02 18:50:00,
2013-01-02 12:53:00,30.0,21.0,30.23,NW,315,0.0,0.0,70,0.00,,,0.00,,2013-01-02 18:53:00,
2013-01-02 13:03:00,30.0,21.0,30.22,NW,323,0.0,0.0,70,0.00,,,0.00,,2013-01-02 19:03:00,
2013-01-02 13:12:00,30.0,21.0,30.22,NW,323,0.0,0.0,70,0.00,,,0.00,,2013-01-02 19:12:00,
2013-01-02 13:22:00,30.0,21.0,30.22,NW,325,0.0,0.0,69,0.00,,,0.00,,2013-01-02 19:22:00,
2013-01-02 13:33:00,30.0,21.0,30.22,NW,325,0.0,0.0,69,0.00,,,0.00,,2013-01-02 19:33:00,
2013-01-02 13:43:00,30.0,21.0,30.22,NW,325,0.0,0.0,69,0.00,,,0.00,,2013-01-02 19:43:00,
2013-01-02 14:03:00,30.0,22.0,30.21,NW,323,0.0,0.0,71,0.00,,,0.00,,2013-01-02 20:03:00,
2013-01-02 14:12:00,30.0,22.0,30.21,NW,323,0.0,0.0,71,0.00,,,0.00,,2013-01-02 20:12:00,
2013-01-02 14:23:00,31.0,22.0,30.21,NW,323,0.0,0.0,69,0.00,,,0.00,,2013-01-02 20:23:00,
2013-01-02 14:33:00,31.0,23.0,30.21,NW,323,0.0,0.0,71,0.00,,,0.00,,2013-01-02 20:33:00,
2013-01-02 14:42:00,31.0,23.0,30.21,NW,323,0.0,0.0,71,0.00,,,0.00,,2013-01-02 20:42:00,
2013-01-02 14:53:00,31.0,22.0,30.21,NW,323,0.0,0.0,68,0.00,,,0.00,,2013-01-02 20:53:00,
2013-01-02 15:03:00,31.0,22.0,30.21,NW,323,0.0,0.0,69,0.00,,,0.00,,2013-01-02 21:03:00,
2013-01-02 15:13:00,31.0,22.0,30.21,NW,323,0.0,0.0,69,0.00,,,0.00,,2013-01-02 21:13:00,
2013-01-02 15:22:00,31.0,22.0,30.22,NW,323,0.0,0.0,70,0.00,,,0.00,,2013-01-02 21:22:00,
2013-01-02 15:32:00,31.0,22.0,30.22,NW,323,0.0,0.0,68,0.00,,,0.00,,2013-01-02 21:32:00,
2013-01-02 15:43:00,31.0,22.0,30.22,NW,323,0.0,0.0,68,0.00,,,0.00,,2013-01-02 21:43:00,
2013-01-02 15:52:00,31.0,22.0,30.22,NW,323,0.0,0.0,68,0.00,,,0.00,,2013-01-02 21:52:00,
2013-01-02 16:03:00,31.0,22.0,30.21,NW,321,0.0,0.0,68,0.00,,,0.00,,2013-01-02 22:03:00,
2013-01-02 16:12:00,31.0,22.0,30.21,NW,321,0.0,0.0,68,0.00,,,0.00,,2013-01-02 22:12:00,
2013-01-02 16:22:00,30.0,21.0,30.22,NW,322,0.0,0.0,69,0.00,,,0.00,,2013-01-02 22:22:00,
2013-01-02 16:32:00,30.0,21.0,30.22,NW,322,0.0,0.0,69,0.00,,,0.00,,2013-01-02 22:32:00,
2013-01-02 16:42:00,30.0,21.0,30.22,NW,322,0.0,0.0,69,0.00,,,0.00,,2013-01-02 22:42:00,
2013-01-02 16:52:00,30.0,21.0,30.21,NW,322,0.0,0.0,70,0.00,,,0.00,,2013-01-02 22:52:00,
2013-01-02 17:03:00,29.0,21.0,30.21,NW,322,0.0,0.0,73,0.00,,,0.00,,2013-01-02 23:03:00,
2013-01-02 17:12:00,29.0,21.0,30.20,NW,322,0.0,0.0,71,0.00,,,0.00,,2013-01-02 23:12:00,
2013-01-02 17:23:00,29.0,21.0,30.20,NW,322,0.0,0.0,71,0.00,,,0.00,,2013-01-02 23:23:00,
2013-01-02 17:33:00,29.0,21.0,30.20,NW,322,0.0,0.0,71,0.00,,,0.00,,2013-01-02 23:33:00,
2013-01-02 17:42:00,29.0,21.0,30.20,NW,322,0.0,0.0,71,0.00,,,0.00,,2013-01-02 23:42:00,